Location: Quaker Farms
(41.4276°N, 73.1557°W)
Time: 01:56:25
(UTC+00:00)

Altair - Pass Details

Date: 17 June 2021
Orbit: 1501 x 1682 km, 47.2° (Epoch: 23 July)

Event Time Altitude Azimuth Distance (km) Brightness Sun altitude
Rises 18:24:02 0° 230° (SW) 4,668 10.4 63.9°
Reaches altitude 10° 18:27:02 10° 229° (SW) 3,706 10.1 63.5°
Maximum altitude 18:36:22 73° 146° (SSE) 1,639 8.9 62.0°
Drops below altitude 10° 18:46:07 10° 65° (ENE) 3,859 9.4 60.4°
Sets 18:49:18 0° 63° (ENE) 4,869 9.8 59.9°
